| time (UTC) | temp C | wind direction | speed KPH | gust KPH | rain 1hr cm | rain 24hr cm | rain mn cm | humidity % | barometer mb |
| 20260505091225 | 13 | 171 | 0.0 | 0.0 | 0.00 | 0.10 | 0.10 | 91 | 999.8 |
| 20260505090223 | 12 | 171 | 0.0 | 3.2 | 0.00 | 0.10 | 0.10 | 91 | 999.8 |
| 20260505085201 | 12 | 171 | 0.0 | 6.4 | 0.00 | 0.10 | 0.10 | 91 | 999.9 |
| 20260505084202 | 12 | 196 | 0.0 | 3.2 | 0.00 | 0.10 | 0.10 | 91 | 999.9 |
| 20260505083202 | 12 | 197 | 0.0 | 3.2 | 0.00 | 0.10 | 0.10 | 91 | 1000.1 |
| 20260505082223 | 12 | 197 | 0.0 | 0.0 | 0.00 | 0.10 | 0.10 | 91 | 1000.0 |
| 20260505081203 | 12 | 198 | 0.0 | 3.2 | 0.00 | 0.10 | 0.10 | 90 | 1000.3 |
| 20260505080202 | 12 | 198 | 0.0 | 0.0 | 0.00 | 0.10 | 0.10 | 90 | 1000.4 |
| 20260505075202 | 12 | 198 | 0.0 | 3.2 | 0.00 | 0.10 | 0.10 | 90 | 1000.4 |
| 20260505074202 | 12 | 197 | 0.0 | 4.8 | 0.00 | 0.10 | 0.10 | 90 | 1000.5 |
| 20260505073204 | 12 | 197 | 1.6 | 4.8 | 0.00 | 0.10 | 0.10 | 90 | 1000.6 |
| 20260505072203 | 12 | 197 | 1.6 | 4.8 | 0.00 | 0.10 | 0.10 | 90 | 1000.7 |
| 20260505071202 | 12 | 197 | 1.6 | 6.4 | 0.00 | 0.10 | 0.10 | 89 | 1000.8 |
| 20260505070202 | 12 | 197 | 1.6 | 4.8 | 0.00 | 0.10 | 0.10 | 89 | 1001.0 |
| 20260505065203 | 12 | 196 | 3.2 | 6.4 | 0.03 | 0.10 | 0.10 | 89 | 1001.0 |
| 20260505064201 | 13 | 196 | 3.2 | 8.0 | 0.03 | 0.10 | 0.10 | 88 | 1001.3 |
| 20260505063202 | 13 | 197 | 3.2 | 9.7 | 0.03 | 0.10 | 0.10 | 88 | 1001.8 |
| 20260505062203 | 13 | 233 | 1.6 | 4.8 | 0.03 | 0.10 | 0.10 | 87 | 1001.7 |
| 20260505061203 | 13 | 233 | 1.6 | 12.9 | 0.03 | 0.10 | 0.10 | 86 | 1002.0 |
| 20260505060204 | 13 | 233 | 1.6 | 14.5 | 0.00 | 0.08 | 0.08 | 84 | 1001.9 |
| 20260505055203 | 15 | 226 | 6.4 | 14.5 | 0.08 | 0.08 | 0.08 | 82 | 1002.1 |
| 20260505054201 | 15 | 239 | 8.0 | 24.1 | 0.03 | 0.03 | 0.03 | 78 | 1002.0 |
| 20260505053202 | 15 | 232 | 6.4 | 19.3 | 0.00 | 0.00 | 0.00 | 75 | 1002.0 |
| 20260505052202 | 16 | 226 | 6.4 | 12.9 | 0.00 | 0.00 | 0.00 | 73 | 1001.9 |
| 20260505051202 | 16 | 228 | 8.0 | 22.5 | 0.00 | 0.00 | 0.00 | 72 | 1001.8 |
| 20260505041202 | 17 | 227 | 3.2 | 12.9 | 0.00 | 0.00 | 0.00 | 71 | 1001.7 |
| 20260505040201 | 16 | 217 | 8.0 | 17.7 | 0.00 | 0.00 | 0.00 | 73 | 1001.5 |
| 20260505035203 | 15 | 229 | 4.8 | 8.0 | 0.00 | 0.00 | 0.00 | 75 | 1001.5 |
| 20260505034201 | 15 | 245 | 1.6 | 4.8 | 0.00 | 0.00 | 0.00 | 74 | 1001.4 |
| 20260505033202 | 15 | 245 | 0.0 | 3.2 | 0.00 | 0.00 | 0.00 | 73 | 1001.5 |
| 20260505032204 | 15 | 198 | 0.0 | 4.8 | 0.00 | 0.00 | 0.00 | 72 | 1001.6 |
| 20260505031202 | 15 | 198 | 1.6 | 8.0 | 0.00 | 0.00 | 0.00 | 73 | 1001.8 |
| 20260505030203 | 15 | 226 | 1.6 | 3.2 | 0.00 | 0.00 | 0.00 | 73 | 1002.0 |
| 20260505025224 | 15 | 226 | 1.6 | 4.8 | 0.00 | 0.00 | 0.00 | 74 | 1002.0 |
| 20260505024201 | 15 | 226 | 1.6 | 6.4 | 0.00 | 0.00 | 0.00 | 75 | 1002.1 |
| 20260505023202 | 14 | 286 | 0.0 | 3.2 | 0.00 | 0.00 | 0.00 | 74 | 1002.2 |
| 20260505022202 | 14 | 286 | 0.0 | 12.9 | 0.00 | 0.00 | 0.00 | 73 | 1002.0 |
| 20260505021204 | 13 | 190 | 3.2 | 9.7 | 0.00 | 0.00 | 0.00 | 71 | 1002.3 |
| 20260505020202 | 14 | 240 | 0.0 | 1.6 | 0.00 | 0.00 | 0.00 | 64 | 1002.5 |
| 20260505015202 | 15 | 241 | 0.0 | 0.0 | 0.00 | 0.00 | 0.00 | 62 | 1002.0 |
| 20260505014202 | 15 | 241 | 0.0 | 3.2 | 0.00 | 0.00 | 0.00 | 62 | 1002.0 |
| 20260505013202 | 15 | 240 | 0.0 | 6.4 | 0.00 | 0.00 | 0.00 | 59 | 1002.1 |
| 20260505012202 | 16 | 248 | 1.6 | 4.8 | 0.00 | 0.00 | 0.00 | 59 | 1002.2 |
| 20260505011202 | 16 | 249 | 0.0 | 3.2 | 0.00 | 0.00 | 0.00 | 57 | 1002.1 |
| 20260505010202 | 16 | 249 | 1.6 | 4.8 | 0.00 | 0.00 | 0.00 | 56 | 1002.0 |
| 20260505005202 | 17 | 249 | 1.6 | 4.8 | 0.00 | 0.00 | 0.00 | 54 | 1001.9 |
| 20260505004205 | 17 | 249 | 1.6 | 4.8 | 0.00 | 0.00 | 0.00 | 52 | 1001.9 |
| 20260505003204 | 18 | 249 | 3.2 | 4.8 | 0.00 | 0.00 | 0.00 | 51 | 1001.9 |
| 20260505002202 | 18 | 249 | 1.6 | 4.8 | 0.00 | 0.00 | 0.00 | 49 | 1002.0 |
| 20260505001201 | 18 | 243 | 3.2 | 6.4 | 0.00 | 0.00 | 0.00 | 47 | 1001.9 |
| 20260505000204 | 19 | 243 | 3.2 | 14.5 | 0.00 | 0.00 | 0.00 | 48 | 1002.0 |
| 20260504235203 | 19 | 227 | 3.2 | 17.7 | 0.00 | 0.00 | 0.00 | 47 | 1002.0 |
| 20260504234246 | 20 | 236 | 3.2 | 9.7 | 0.00 | 0.00 | 0.00 | 47 | 1002.0 |
| 20260504233202 | 20 | 242 | 3.2 | 14.5 | 0.00 | 0.00 | 0.00 | 46 | 1001.9 |
| 20260504232204 | 20 | 261 | 6.4 | 17.7 | 0.00 | 0.00 | 0.00 | 50 | 1002.0 |
| 20260504231203 | 20 | 277 | 9.7 | 20.9 | 0.00 | 0.00 | 0.00 | 48 | 1002.1 |
| 20260504230203 | 20 | 245 | 4.8 | 19.3 | 0.00 | 0.00 | 0.00 | 49 | 1002.2 |
| 20260504225201 | 20 | 233 | 4.8 | 19.3 | 0.00 | 0.00 | 0.00 | 49 | 1002.2 |
| 20260504224203 | 20 | 270 | 6.4 | 17.7 | 0.00 | 0.00 | 0.00 | 48 | 1002.3 |
| 20260504223225 | 21 | 274 | 6.4 | 25.7 | 0.00 | 0.00 | 0.00 | 48 | 1002.2 |
| 20260504222201 | 21 | 300 | 4.8 | 19.3 | 0.00 | 0.00 | 0.00 | 48 | 1002.2 |
| 20260504221204 | 21 | 263 | 8.0 | 29.0 | 0.00 | 0.00 | 0.00 | 44 | 1002.3 |
| 20260504220223 | 21 | 248 | 6.4 | 20.9 | 0.00 | 0.00 | 0.00 | 44 | 1002.1 |
| 20260504215203 | 21 | 252 | 4.8 | 17.7 | 0.00 | 0.00 | 0.00 | 44 | 1002.2 |
| 20260504214202 | 21 | 284 | 8.0 | 30.6 | 0.00 | 0.00 | 0.00 | 42 | 1002.2 |
| 20260504213203 | 21 | 253 | 4.8 | 25.7 | 0.00 | 0.00 | 0.00 | 45 | 1002.1 |
| 20260504212201 | 21 | 268 | 8.0 | 22.5 | 0.00 | 0.00 | 0.00 | 44 | 1002.1 |
| 20260504211202 | 21 | 276 | 8.0 | 22.5 | 0.00 | 0.00 | 0.00 | 48 | 1002.2 |
| 20260504210202 | 21 | 227 | 4.8 | 16.1 | 0.00 | 0.00 | 0.00 | 50 | 1002.4 |
| 20260504205202 | 21 | 218 | 4.8 | 22.5 | 0.00 | 0.00 | 0.00 | 49 | 1002.4 |
| 20260504204201 | 21 | 234 | 6.4 | 17.7 | 0.00 | 0.00 | 0.00 | 49 | 1002.7 |
| 20260504203223 | 21 | 224 | 4.8 | 19.3 | 0.00 | 0.00 | 0.00 | 49 | 1002.7 |
| 20260504202202 | 21 | 255 | 6.4 | 16.1 | 0.00 | 0.00 | 0.00 | 50 | 1002.8 |
| 20260504201202 | 21 | 217 | 8.0 | 14.5 | 0.00 | 0.00 | 0.00 | 47 | 1002.9 |
| 20260504200202 | 21 | 238 | 4.8 | 17.7 | 0.00 | 0.00 | 0.00 | 48 | 1002.9 |
| 20260504195202 | 22 | 255 | 4.8 | 19.3 | 0.00 | 0.00 | 0.00 | 51 | 1003.0 |
| 20260504194202 | 21 | 232 | 6.4 | 19.3 | 0.00 | 0.00 | 0.00 | 50 | 1003.0 |
| 20260504193203 | 21 | 215 | 6.4 | 16.1 | 0.00 | 0.00 | 0.00 | 51 | 1003.5 |
| 20260504192203 | 21 | 230 | 4.8 | 19.3 | 0.00 | 0.00 | 0.00 | 50 | 1003.5 |
| 20260504191202 | 22 | 203 | 6.4 | 22.5 | 0.00 | 0.00 | 0.00 | 49 | 1003.6 |
| 20260504190202 | 21 | 250 | 8.0 | 30.6 | 0.00 | 0.00 | 0.00 | 49 | 1003.7 |
| 20260504185202 | 21 | 225 | 6.4 | 17.7 | 0.00 | 0.00 | 0.00 | 51 | 1003.9 |
| 20260504184202 | 21 | 246 | 11.3 | 17.7 | 0.00 | 0.00 | 0.00 | 52 | 1004.0 |
| 20260504183202 | 21 | 240 | 9.7 | 22.5 | 0.00 | 0.00 | 0.00 | 52 | 1004.2 |
| 20260504182202 | 21 | 213 | 6.4 | 14.5 | 0.00 | 0.00 | 0.00 | 54 | 1004.3 |
| 20260504181202 | 20 | 234 | 6.4 | 17.7 | 0.00 | 0.00 | 0.00 | 54 | 1004.5 |
| 20260504180202 | 20 | 226 | 9.7 | 24.1 | 0.00 | 0.00 | 0.00 | 55 | 1004.6 |
| 20260504175202 | 20 | 236 | 8.0 | 24.1 | 0.00 | 0.00 | 0.00 | 53 | 1004.8 |
| 20260504174202 | 20 | 215 | 8.0 | 14.5 | 0.00 | 0.00 | 0.00 | 56 | 1004.9 |
| 20260504173202 | 19 | 252 | 6.4 | 32.2 | 0.00 | 0.00 | 0.00 | 57 | 1005.0 |
| 20260504172202 | 18 | 224 | 4.8 | 25.7 | 0.00 | 0.00 | 0.00 | 56 | 1005.1 |
| 20260504171202 | 18 | 247 | 9.7 | 17.7 | 0.00 | 0.00 | 0.00 | 57 | 1005.2 |
| 20260504170202 | 18 | 241 | 6.4 | 25.7 | 0.00 | 0.00 | 0.00 | 59 | 1005.2 |
| 20260504160202 | 17 | 229 | 8.0 | 22.5 | 0.00 | 0.00 | 0.00 | 58 | 1006.0 |
| 20260504150203 | 16 | 227 | 11.3 | 24.1 | 0.00 | 0.00 | 0.00 | 58 | 1006.2 |
| 20260504141203 | 15 | 232 | 9.7 | 25.7 | 0.00 | 0.00 | 0.00 | 59 | 1006.0 |
| 20260504140224 | 15 | 221 | 9.7 | 24.1 | 0.00 | 0.00 | 0.00 | 59 | 1006.1 |
| 20260504130202 | 13 | 212 | 4.8 | 22.5 | 0.00 | 0.00 | 0.00 | 61 | 1006.5 |
| 20260504120203 | 12 | 200 | 4.8 | 14.5 | 0.00 | 0.00 | 0.00 | 63 | 1006.4 |
| 20260504110202 | 10 | 217 | 3.2 | 6.4 | 0.00 | 0.00 | 0.00 | 67 | 1006.7 |
| 20260504100202 | 10 | 258 | 1.6 | 4.8 | 0.00 | 0.00 | 0.00 | 65 | 1006.5 |